Regional Weather Roundup
Issued by NWS

Home | Current Version | Previous Version | Text Only | Print | Product List | Glossary On
Versions: 1 2 3 4 5 6 7 8 9 10 11 12 13 14 15 16 17 18 19 20 21 22 23 24 25 26 27 28 29 30 31 32 33 34 35 36 37 38 39 40 41 42 43 44 45 46 47 48 49 50
000
ASUS45 KREV 201410
RWRNV
NEVADA REGIONAL WEATHER ROUNDUP
NATIONAL WEATHER SERVICE RENO NV
700 AM PDT FRI APR 20 2018

NOTE: "FAIR" INDICATES FEW OR NO CLOUDS BELOW 12,000 FEET WITH NO
SIGNIFICANT WEATHER AND/OR OBSTRUCTIONS TO VISIBILITY.

NVZ001-003-004-201500-
WESTERN NEVADA

CITY           SKY/WX    TMP DP  RH WIND       PRES   REMARKS
RENO           CLEAR     38  30  73 VRB5      30.24R
CARSON CITY    FAIR      34  28  80 CALM      30.25R
MINDEN         FAIR      25  23  93 MISG      30.26R
SLIDE MTN        N/A     27  23  86 N16         N/A
FALLON         CLEAR     36  34  92 CALM      30.21R
LOVELOCK       CLEAR     33  30  88 S6        30.20R
HAWTHORNE      CLEAR     45  34  65 NW10      30.20R
$$

NVZ002-CAZ072-073-201500-
NORTHERN AND CENTRAL SIERRA

CITY           SKY/WX    TMP DP  RH WIND       PRES   REMARKS
S. LAKE TAHOE  CLEAR     27  24  89 S5        30.23R
TRUCKEE        CLOUDY    21  21 100 E5        30.25R
SQUAW VLY 8000   N/A     32  28  86 NE2         N/A
BLUE CANYON    CLEAR     43  27  53 NE5       30.20R
MAMMOTH LAKES  FAIR      32  25  76 W5        30.25R
BRIDGEPORT     MOCLDY    31  25  78 CALM      30.21R
$$

NVZ030-031-036-201500-
NORTHERN NEVADA

CITY           SKY/WX    TMP DP  RH WIND       PRES   REMARKS
ELKO           SUNNY     39  27  62 SW7       30.09R
WINNEMUCCA     CLEAR     38  29  70 CALM      30.19R
WENDOVER       MOSUNNY   51  24  34 N26G38    29.89R
$$

NVZ035-037-201500-
CENTRAL NEVADA

CITY           SKY/WX    TMP DP  RH WIND       PRES   REMARKS
ELY            PTSUNNY   40  22  48 N10       29.97R
EUREKA           N/A     33  28  81 NW6       30.10R
$$

NVZ013-014-201500-
SOUTH CENTRAL NEVADA

CITY           SKY/WX    TMP DP  RH WIND       PRES   REMARKS
TONOPAH        CLEAR     40  33  76 NW20G28   30.10R
$$

NVZ017-020-022-201500-
SOUTHERN NEVADA

CITY           SKY/WX    TMP DP  RH WIND       PRES   REMARKS
LAS VEGAS      MOSUNNY   56  36  47 SW9       29.96R
N. LAS VEGAS   SUNNY     57  33  40 NW28G36   29.92R
NELLIS AFB     SUNNY     60  33  37 W25G35    29.92R
HENDERSON      SUNNY     50  36  58 S6        29.98R
MERCURY        SUNNY     46  34  62 N3        30.01R
$$



USA.gov is the U.S. government's official web portal to all federal, state and local government web resources and services.